Regional Weather Roundup
Issued by NWS

Current Version | Previous Version | Text Only | Print | Product List | Glossary On
Versions: 1 2 3 4 5 6 7 8 9 10 11 12 13 14 15 16 17 18 19 20 21 22 23 24 25 26 27 28 29 30 31 32 33 34 35 36 37 38 39 40 41 42 43 44 45 46 47 48 49 50
000
ASUS44 KOUN 210110
RWROK

WEATHER ROUNDUP FOR OKLAHOMA
NATIONAL WEATHER SERVICE NORMAN OK
700 PM CST SAT JAN 20 2018

NOTE: "FAIR" INDICATES FEW OR NO CLOUDS BELOW 12,000 FEET WITH NO
      SIGNIFICANT WEATHER AND/OR OBSTRUCTIONS TO VISIBILITY.

OKZ001>007-009>012-014-015-017-210200-
NORTHWEST OKLAHOMA AND THE PANHANDLE

CITY           SKY/WX    TMP DP  RH WIND       PRES   REMARKS
GAGE           CLEAR     57  27  31 S18       29.70R
GUYMON         CLEAR     59  16  18 S14       29.67R
ENID/WOODRING  CLEAR     48  37  66 S8        29.75R
$$

OKZ016-021>023-033>039-044-045-210200-
SOUTHWEST OKLAHOMA

CITY           SKY/WX    TMP DP  RH WIND       PRES   REMARKS
LAWTON/REGL    CLEAR     57  36  45 SE6       29.79R
LAWTON/FT SILL CLEAR     58  40  51 S9        29.77S
FREDERICK      CLEAR     60  33  36 SE12      29.74R
CLINTON        CLEAR     56  32  40 S17       29.75S
HOBART         CLEAR     59  34  39 S12       29.76S
ALTUS AFB      CLEAR     55  26  32 SE10      29.75R
$$

OKZ018>020-024>031-210200-
CENTRAL OKLAHOMA

CITY           SKY/WX    TMP DP  RH WIND       PRES   REMARKS
OKLAHOMA CITY  CLEAR     57  38  48 S12       29.79S
OKC/WILEY POST CLEAR     62  39  42 S16       29.78S
OKC/TINKER AFB CLEAR     60  41  49 S14       29.78S
STILLWATER     CLEAR     58  40  51 SE10      29.78S
GUTHRIE        CLEAR     59  38  45 S7        29.78R
$$

OKZ008-013-054>072-210200-
NORTHEAST OKLAHOMA

CITY           SKY/WX    TMP DP  RH WIND       PRES   REMARKS
TULSA          CLEAR     60  51  72 SE12      29.82R
TULSA/JONES    CLEAR     62  49  62 S13       29.84R
PONCA CITY     CLEAR     58  40  51 S10       29.78R
BARTLESVILLE   CLEAR     59  48  67 S14G20    29.82R
MUSKOGEE       CLEAR     57  51  80 S9        29.89R
$$

OKZ032-040>043-046>053-073>077-210200-
SOUTH CENTRAL/SOUTHEAST OKLAHOMA

CITY           SKY/WX    TMP DP  RH WIND       PRES   REMARKS
ARDMORE/DWNTWN CLEAR     59  46  63 S6        29.86S
MCALESTER      CLEAR     60  53  77 S12G23    29.88R
$$




USA.gov is the U.S. government's official web portal to all federal, state and local government web resources and services.